Location: Pinhead Observatory
(34.4473°N, 118.1985°W)
Time: 17:23:23
(UTC-07:00)

Daily predictions for brighter satellites

Satellite Brightness Start Highest point End
(mag) Time Altitude Azimuth Time Altitude Azimuth Time Altitude Azimuth
Meteor 2-21 Rocket 4.5 19:20:56 10° S 19:27:00 86° E 19:33:09 10° N
Cosmos 1898 Rocket 3.7 19:22:55 10° S 19:28:05 55° ESE 19:33:15 10° NNE
USA 215 3.7 19:27:07 10° ENE 19:33:13 41° SE 19:39:15 10° SSW
COSMOS 2406 3.6 19:33:00 10° N 19:38:29 45° ENE 19:43:55 10° SE
Aureole 1 Rocket 3.5 19:34:43 10° NNW 19:38:49 53° WSW 19:42:05 10° S
CZ-3C R/B 3.7 19:35:12 10° WSW 19:42:42 18° SW 19:46:07 10° S
HJ-1C 3.8 19:41:14 10° SSE 19:44:25 41° ENE 19:47:39 10° N
ATLAS CENTAUR R/B 4.1 19:43:18 10° WNW 19:45:26 15° WSW 19:47:34 10° SSW
Cosmos 2098 4.4 19:42:41 10° S 19:46:28 86° E 19:49:36 10° N
Helios 1B rocket 3.7 19:45:36 10° NE 19:48:39 20° E 19:51:40 10° SE
Cosmos 1844 3.7 19:45:46 10° S 19:51:27 70° ESE 19:57:13 10° NNE
Geosat 4.0 19:47:28 10° NNE 19:52:27 61° ESE 19:57:24 10° SSW
Cosmos 858 Rocket 4.5 19:48:28 10° SSW 19:53:43 85° ESE 19:59:01 10° NNE
BREEZE-M DEB (TANK) 3.4 19:51:42 10° S 19:54:04 25° ESE 19:58:54 10° ENE
Lacrosse 4 Rocket 1.5 19:51:06 10° SSW 19:55:10 77° WNW 19:59:14 10° NNE
Tiangong 1 3.1 19:53:17 10° NW 19:55:22 17° N 19:57:19 11° NE
CZ-2D R/B 4.1 19:52:21 10° SE 19:55:41 29° ENE 19:59:04 10° NNE
SL-27 R/B 4.1 19:54:35 10° NNE 19:57:05 18° ENE 19:57:54 17° E
NOSS 3-4 (A) 4.2 19:52:17 10° NW 19:59:24 70° WSW 20:06:56 10° SSE
NOSS 3-4 (C) 4.2 19:52:23 10° NW 19:59:30 70° WSW 20:07:02 10° SSE
SJ-6B 3.1 19:57:14 10° S 20:00:57 66° WSW 20:04:40 10° NNW
Cosmos 1805 4.4 19:59:11 10° SE 20:02:11 22° E 20:05:13 10° NE
Cosmos 1937 Rocket 3.4 19:57:17 10° SSW 20:02:29 83° ESE 20:07:47 10° NNE
Cosmos 1437 Rocket 2.8 19:59:18 10° S 20:03:16 87° WNW 20:07:19 10° N
Cosmos 2298 Rocket 4.3 20:00:18 10° SSW 20:05:35 73° WNW 20:10:54 10° NNE
Meteor 1-22 Rocket 4.2 20:03:27 10° S 20:09:07 73° E 20:15:03 10° NNE
OE (NEXTSAT) 4.3 20:05:53 10° SW 20:09:27 72° SE 20:11:46 20° ENE
Okean 3 Rocket 4.4 20:09:56 10° NNE 20:13:46 29° ENE 20:15:03 25° ESE
Yuri Rocket 3.8 20:10:25 10° WSW 20:14:15 35° S 20:16:09 23° SE
ALOS 2.6 20:10:01 10° S 20:14:39 67° W 20:19:18 10° NNW
Cosmos 1934 Rocket 3.9 20:09:38 10° S 20:15:49 83° E 20:21:56 10° N
SeaSat 1 3.2 20:14:06 10° S 20:18:53 54° WSW 20:23:44 10° NW
Cosmos 1758 4.0 20:19:19 30° E 20:19:25 30° E 20:22:55 10° NNE
Lacrosse 5 1.8 20:15:59 10° SW 20:21:03 85° SE 20:26:08 10° NE
CZ-3B DEB 3.6 20:08:25 10° SW 20:21:24 64° NW 20:27:14 10° NE
Cosmos 1939 Rocket 4.4 20:26:40 20° NE 20:26:40 20° NE 20:29:00 10° NNE
Cosmos 1867 4.3 20:22:06 10° SSE 20:26:25 28° ESE 20:26:25 28° ESE
Cosmos 1953 2.9 20:30:52 37° ENE 20:30:52 37° ENE 20:34:14 10° NNE
Cosmos 2344 3.9 20:22:54 10° SW 20:30:33 72° WNW 20:38:52 10° NNE
Resurs 01 Rocket 1.9 20:26:12 10° S 20:30:34 68° WSW 20:34:59 10° NNW
GP-B 3.7 20:31:09 35° E 20:31:09 35° E 20:35:09 10° NNE
DASH 4.0 20:12:00 10° WSW 20:33:27 56° S 20:35:45 32° ESE
Cosmos 1844 Rocket 4.4 20:32:57 10° SW 20:38:00 33° WNW 20:43:05 10° N
In-Cosmos 22 3.9 20:35:38 10° N 20:40:57 71° E 20:44:07 24° SSE
H-2A R/B 4.0 20:38:43 10° S 20:42:22 41° W 20:46:05 10° NNW
Spot 1 4.1 20:41:37 32° SSE 20:43:42 79° ENE 20:48:26 10° N
Cosmos 2278 Rocket 2.4 20:39:05 10° SSW 20:44:44 74° WNW 20:50:26 10° NNE
SAR-Lupe-4 3.4 20:44:32 63° S 20:45:05 87° WSW 20:48:40 10° NNW
Cosmos 2100 Rocket 4.3 20:49:24 41° ESE 20:50:10 43° E 20:56:06 10° NNE
Cosmos 1833 Rocket 4.0 20:46:31 10° N 20:50:13 23° NE 20:50:13 23° NE
Cosmos 1605 Rocket 4.2 20:45:37 10° SSW 20:51:48 74° W 20:58:08 10° N
Cosmos 2297 3.6 20:50:22 10° S 20:55:55 60° ESE 21:01:34 10° NNE
Delta 2 Rocket 3.3 20:54:09 10° W 20:58:24 81° WNW 20:58:24 81° WNW
RESURS DK-1 2.3 20:54:35 10° NNW 20:58:30 80° NNW 20:58:30 80° NNW
Cosmos 1076 Rocket 4.1 20:57:52 10° N 21:00:54 44° NNE 21:00:54 44° NNE
OAO 1 4.4 20:57:19 10° W 21:02:50 83° N 21:03:37 66° ENE
Timation 1 Rocket 4.3 21:05:13 10° SSW 21:11:14 81° WNW 21:17:16 10° NNE
Envisat 2.9 21:11:56 76° S 21:12:22 87° WSW 21:17:28 10° NNW
Cosmos 2061 Rocket 4.1 21:13:20 54° ENE 21:13:20 54° ENE 21:18:55 10° NNE
USA 215 4.0 21:09:57 10° NNE 21:16:12 49° NW 21:22:24 10° WSW
Cosmos 1125 Rocket 3.6 21:13:18 10° SSW 21:18:28 71° WNW 21:23:40 10° NNE
Cosmos 2082 Rocket 3.0 21:13:02 10° N 21:17:10 38° NNE 21:17:10 38° NNE
Helios 1A 4.3 21:17:39 33° SW 21:18:32 37° W 21:22:25 10° NNW
Cosmos 1818 4.4 21:33:33 10° NNW 21:37:17 44° N 21:37:17 44° N
ERS-1 Rocket 4.2 21:43:34 36° NNW 21:43:34 36° NNW 21:46:32 10° NNW
USA 267 4.1 21:46:37 36° NNE 21:46:37 36° NNE 21:51:54 10° NNW
Cosmos 1459 Rocket 4.4 21:52:49 60° W 21:52:57 60° W 21:59:07 10° N
Cosmos 2173 Rocket 4.4 21:54:17 59° WNW 21:54:17 59° WNW 22:00:05 10° N
Lacrosse 5 4.4 22:01:18 10° WNW 22:04:36 17° NW 22:06:35 14° N
CZ-3 Stage 3 4.3 22:36:42 10° W 22:47:11 35° WSW 22:47:11 35° WSW
